Simultaneous Nadir Overpasses (SNOs) Predictions

Prediction of SNOs between GOES-15 and NOAA-20 Satellite Orbit:

Table of predicted SNOs for the next 14.0 days since TLE Epoch: 7/20/2024
Index Date Time (GOES-15) GOES-15 Lat,Lon NOAA-20 Lat,Lon Distance(km) Time Diff (sec)
1 07/20/2024 09:33:12 0.34, 61.13 -0.46, 57.54 409.78 80
2 07/21/2024 09:17:08 0.33, 61.14 0.55, 62.07 106.07 80
3 07/23/2024 21:20:11 -0.35, 61.21 -0.37, 61.32 12.72 80
4 07/26/2024 09:20:44 0.36, 61.18 0.22, 60.54 72.77 80
5 07/27/2024 09:04:39 0.35, 61.18 1.24, 65.07 442.77 80
6 07/28/2024 21:23:46 -0.37, 61.26 -0.05, 59.79 166.45 80
7 07/29/2024 21:07:42 -0.37, 61.27 -1.08, 64.32 348.34 80
8 07/31/2024 09:26:59 0.40, 61.24 -0.08, 59.00 254.40 80
9 08/01/2024 09:10:54 0.39, 61.26 0.89, 63.54 260.44 80
10 08/02/2024 21:30:01 -0.41, 61.33 0.28, 58.27 348.80 80
